Probability
0 0 0 0 0 0 0 0 0 0 0 0 0 1 11 34 62 77 82 83 77 70 67 66 66 69 74 81 86 89 91 95 99 100 99 91 74 53 35 29 34 38 41 43
0 0 0 0 0 0 0 0 0 0 0 0 0 1 9 30 55 71 79 83 80 73 69 69 68 68 72 77 82 86 89 92 95 98 98 92 78 59 41 32 33 36 39 44
0 0 0 0 0 0 0 0 0 0 0 0 0 0 5 19 39 58 72 80 81 74 68 67 67 65 66 69 74 78 81 85 88 92 95 93 84 70 52 38 32 31 34 38
0 0 0 0 0 0 0 0 0 0 0 0 0 0 2 10 27 47 65 76 79 73 66 64 63 62 62 64 67 70 75 78 80 84 88 88 84 74 59 45 35 29 27 27
0 0 0 0 0 0 0 0 0 0 0 0 0 0 1 7 20 38 57 70 74 71 66 63 62 61 63 65 66 66 69 71 72 75 78 79 77 70 61 51 39 30 25 22
0 0 0 0 0 0 0 0 0 0 0 0 0 0 2 9 18 30 45 57 61 64 64 62 58 59 63 66 67 64 64 63 64 67 71 73 72 69 64 55 42 31 24 20
0 0 0 0 0 0 0 0 0 0 0 0 0 0 5 13 18 21 28 35 40 45 50 51 50 51 57 64 67 64 61 61 62 67 71 73 72 69 63 53 41 30 22 19
0 0 0 0 0 0 0 0 0 0 0 0 0 1 5 11 12 10 12 15 18 22 27 32 35 39 48 58 64 64 64 65 68 72 74 73 71 66 55 43 32 24 17 14
0 0 0 0 0 0 0 0 0 0 0 0 0 1 3 5 3 2 2 3 4 6 10 15 21 28 36 44 52 56 60 64 67 69 68 65 60 51 39 26 18 13 8 6
0 0 0 0 0 0 0 0 0 0 0 0 0 0 1 1 0 0 0 0 0 1 2 5 11 17 24 28 32 37 43 47 49 49 47 42 34 25 17 10 6 4 2 1
0 0 0 0 0 0 0 0 0 0 0 0 0 0 0 0 0 0 0 0 0 0 0 1 3 7 12 15 16 19 22 24 24 22 20 15 10 6 3 2 1 1 0 0
0 0 0 0 0 0 0 0 0 0 0 0 0 0 0 0 0 0 0 0 1 1 0 0 0 1 3 5 7 8 9 9 7 5 4 2 0 0 0 0 0 0 0 0
0 0 0 0 0 0 0 0 0 0 0 0 0 0 0 0 1 0 0 0 1 1 0 0 0 0 0 1 1 2 2 2 1 0 0 0 0 0 0 0 0 0 0 0
0 0 0 0 0 0 0 0 0 0 0 0 0 0 0 0 0 0 0 0 1 1 0 0 0 0 0 0 0 0 0 0 0 0 0 0 0 0 0 0 0 0 0 0
0 0 0 0 0 0 0 0 0 0 0 0 0 0 0 0 0 0 0 0 0 0 0 0 0 0 0 0 0 0 0 0 0 0 0 0 0 0 0 0 0 0 0 0
0 0 0 0 0 0 0 0 0 0 0 0 0 0 0 0 0 0 0 0 0 0 0 0 0 0 0 0 0 0 0 0 0 0 0 0 0 0 0 0 0 0 0 0
0 0 0 0 0 0 0 0 0 0 0 0 0 0 0 0 0 0 0 0 0 0 0 0 0 0 0 0 0 0 0 0 0 0 0 0 0 0 0 0 0 0 0 0
0 0 0 0 0 0 0 0 0 0 0 0 0 0 0 0 0 0 0 0 0 0 0 0 0 0 0 0 0 0 0 0 0 0 0 0 0 0 0 0 0 0 0 0
0 0 0 0 0 0 0 0 0 0 0 0 0 0 0 0 0 0 0 0 0 0 0 0 0 0 0 0 0 0 0 0 0 0 0 0 0 0 0 0 0 0 0 0
0 0 0 0 0 0 0 0 0 0 0 0 0 0 0 0 0 0 0 0 0 0 0 0 0 0 0 0 0 0 0 0 0 0 0 0 0 0 0 0 0 0 0 0
0 0 0 0 0 0 0 0 0 0 0 0 0 0 0 0 0 0 0 0 0 0 0 0 0 0 0 0 0 0 0 0 0 0 0 0 0 0 0 0 0 0 0 0
0 0 0 0 0 0 0 0 0 0 0 0 0 0 0 0 0 0 0 0 0 0 0 0 0 0 0 0 0 0 0 0 0 0 0 0 0 0 0 0 0 0 0 0
0 0 0 0 0 0 0 0 0 0 0 0 0 0 0 0 0 0 0 0 0 0 0 0 0 0 0 0 0 0 0 0 0 0 0 0 0 0 0 0 0 0 0 0
0 0 0 0 0 0 0 0 0 0 0 0 0 0 0 0 0 0 0 0 0 0 0 0 0 0 0 0 0 0 0 0 0 0 0 0 0 0 0 0 0 0 0 0
0 0 0 0 0 0 0 0 0 0 0 0 0 0 0 0 0 0 0 0 0 0 0 0 0 0 0 0 0 0 0 0 0 0 0 0 0 0 0 0 0 0 0 0
0 0 0 0 0 0 0 0 0 0 0 0 0 0 0 0 0 0 0 0 0 0 0 0 0 0 0 0 0 0 0 0 0 0 0 0 0 0 0 0 0 0 0 0
Wind_Speed
2 2 3 8 8 9 7 8 8 9 8 5 8 11 13 9 13 14 13 12 12 10 7 6 6 7 7 9 11 12 10 10 7 5 4 4 3 2 2 2 4 5 5 5
3 5 12 11 9 7 6 5 6 8 8 6 7 9 5 8 13 16 17 16 15 11 8 8 8 8 10 11 11 10 9 10 9 7 5 3 3 3 3 2 3 4 5 5
5 8 8 6 4 3 5 4 6 8 9 7 6 9 6 1 3 6 8 10 10 12 11 10 9 9 10 10 11 9 8 9 9 7 4 2 2 1 1 2 2 3 4 4
4 4 6 4 3 3 6 7 5 5 5 6 4 5 9 4 4 5 5 4 4 4 4 5 6 5 5 6 7 8 8 7 6 6 5 5 5 4 5 3 3 3 4 4
5 5 6 5 5 5 6 5 3 2 2 4 5 1 8 6 6 7 8 8 7 5 3 2 2 3 2 3 4 5 5 6 6 7 7 6 5 4 2 2 3 3 2 3
6 5 3 4 5 4 4 6 7 6 5 3 5 3 7 4 2 4 8 10 9 8 7 5 4 2 2 2 3 3 3 4 5 6 6 6 6 5 4 3 3 2 1 1
6 7 5 3 5 7 8 7 6 7 5 5 6 4 4 4 6 6 8 7 7 7 7 7 6 3 2 2 3 4 4 3 4 4 4 4 4 5 5 4 3 3 1 1
2 5 4 3 1 1 1 6 5 3 4 5 6 5 1 6 6 6 6 5 5 4 3 3 5 5 3 4 4 4 3 3 3 4 4 3 4 4 3 4 4 3 2 2
2 4 4 4 2 2 1 2 4 5 1 3 5 4 4 5 5 4 4 3 3 2 2 1 2 3 4 4 4 4 4 4 4 5 6 5 5 6 5 5 5 4 3 2
3 2 4 4 5 6 5 5 6 5 1 4 6 5 3 4 1 1 2 3 4 4 3 2 2 2 3 3 3 4 4 4 4 5 5 5 5 6 6 5 5 4 3 3
3 2 4 3 2 1 2 4 5 4 4 3 4 7 6 5 4 3 3 3 3 3 4 3 2 2 3 4 4 5 4 4 4 4 5 5 5 5 5 5 4 3 3 3
4 5 1 4 4 2 5 6 7 5 4 4 3 10 6 4 5 5 5 4 2 1 2 3 2 3 4 5 4 4 3 3 3 4 5 5 5 5 5 4 4 4 4 3
5 7 3 8 7 4 1 3 4 5 5 5 5 10 3 3 5 6 6 6 4 2 1 1 2 3 4 3 3 3 2 2 3 4 5 5 5 5 5 4 4 4 4 4
7 5 7 7 8 5 5 5 4 7 5 6 9 10 6 6 7 8 7 6 5 3 2 1 1 3 3 3 3 3 2 2 3 4 5 4 4 4 4 4 4 4 4 4
6 4 5 6 7 6 8 10 7 8 9 9 9 8 9 7 7 7 6 5 5 4 3 3 2 2 2 3 3 3 3 3 3 4 4 3 3 4 4 4 4 4 4 4
4 3 1 3 6 7 10 10 7 7 6 7 5 7 6 3 2 2 4 5 5 5 4 3 2 2 1 2 2 2 2 2 3 4 4 4 4 4 4 4 4 4 4 4
4 5 2 4 5 6 8 8 6 5 5 6 6 7 3 3 5 6 6 6 5 5 4 4 4 2 1 1 0 0 0 1 2 3 4 4 5 4 4 4 5 4 4 4
7 6 4 2 3 5 10 6 6 5 4 5 6 6 7 8 7 6 7 7 6 5 5 4 4 3 2 2 1 1 1 1 2 3 3 4 5 5 4 5 4 3 3 3
8 8 5 3 3 7 8 5 5 5 3 4 7 7 7 5 2 3 6 7 7 7 6 5 5 4 3 2 2 1 1 1 2 3 3 3 4 4 4 4 3 2 3 3
5 6 5 4 4 6 9 6 5 5 2 3 6 7 7 7 4 7 7 7 6 5 5 4 4 3 3 3 2 2 1 2 2 3 4 3 4 4 4 4 3 2 3 3
2 2 4 5 6 8 8 4 5 3 9 5 5 6 7 9 9 7 6 7 7 6 6 5 5 4 4 3 3 3 2 3 3 4 4 4 4 4 4 3 2 3 3 3
6 5 5 4 4 9 6 4 7 9 7 6 6 6 7 8 7 7 9 8 8 7 6 6 5 4 4 4 4 4 3 3 4 5 5 4 3 3 3 4 3 3 4 4
4 7 6 8 9 9 6 8 8 8 8 8 7 7 8 8 9 9 9 9 8 7 6 5 5 5 4 4 5 5 4 5 5 5 5 4 4 3 3 4 3 3 3 3
5 3 3 4 6 6 7 6 6 9 10 10 10 9 10 10 11 10 9 8 8 7 6 5 6 6 5 4 5 5 5 5 6 5 4 4 4 3 3 3 3 3 3 3
7 4 4 6 8 7 7 7 8 9 9 9 9 9 12 13 11 12 11 10 8 7 6 6 7 7 6 6 6 5 5 6 5 5 4 4 4 4 3 2 2 3 3 4
7 8 8 9 10 7 8 8 7 8 9 10 10 9 9 13 13 13 12 10 9 8 7 7 7 7 7 7 6 6 6 6 6 5 4 4 3 3 3 3 1 2 1 2
Wind_Direction
219 90 242 241 228 225 254 271 276 274 276 293 276 269 254 208 175 168 170 174 177 173 177 179 177 169 164 175 184 190 191 189 182 178 183 184 198 202 204 199 183 179 183 181
14 261 243 244 249 246 254 266 278 289 304 322 304 295 266 179 177 174 175 179 179 171 171 175 181 172 170 181 189 195 194 193 190 190 186 182 179 194 200 197 188 190 186 181
221 252 265 257 251 287 313 302 292 297 318 343 354 331 337 319 162 166 170 170 169 170 173 176 183 183 181 188 187 187 192 200 196 189 171 160 149 150 174 195 201 205 190 186
283 293 334 345 322 314 296 289 306 331 355 317 19 310 302 336 25 63 90 117 138 142 153 167 163 169 188 197 192 182 182 186 195 187 182 181 190 200 207 198 196 202 194 189
293 310 326 321 301 302 270 287 332 351 17 345 355 325 291 7 29 41 51 58 60 60 75 100 121 144 151 185 189 178 171 177 192 194 195 190 202 207 198 185 178 182 187 185
270 285 284 287 305 324 346 14 8 29 53 341 288 289 284 355 360 73 63 58 53 48 42 34 25 58 120 134 138 153 169 196 199 194 193 190 194 189 176 172 166 165 168 178
320 321 323 349 357 356 40 54 17 356 359 270 298 300 260 48 42 72 78 67 55 46 41 28 12 14 52 92 110 132 160 186 191 179 173 176 175 170 164 158 156 146 133 126
278 301 315 5 56 335 47 114 144 219 253 290 320 286 341 69 55 53 60 58 49 42 36 32 11 0 36 64 83 103 124 133 133 128 125 125 129 126 117 115 116 114 113 109
193 272 319 347 359 105 96 90 154 150 288 285 280 301 61 65 46 33 28 15 353 348 349 1 25 14 40 50 64 88 100 94 97 101 98 94 96 98 100 96 92 92 94 98
148 268 308 343 35 34 105 122 78 85 57 286 294 306 295 305 295 320 313 312 314 315 312 325 8 33 56 60 59 63 78 93 95 98 103 103 98 99 102 96 93 93 84 74
101 127 314 6 24 221 92 83 102 118 159 197 263 267 225 218 207 213 242 260 288 308 313 326 347 14 56 58 57 66 68 79 86 98 105 105 104 103 101 100 101 96 78 71
112 110 297 286 275 173 138 154 147 154 213 199 217 264 261 199 205 206 219 230 237 281 303 316 358 26 40 53 56 61 71 84 93 105 108 109 112 109 104 102 98 91 79 68
117 98 35 346 344 355 83 179 166 141 139 174 201 262 266 202 223 222 218 219 209 204 230 339 29 40 38 41 46 51 54 76 99 110 109 107 110 114 113 106 93 82 74 61
106 119 159 202 232 259 280 258 191 140 165 208 225 251 273 253 244 240 226 215 207 205 183 144 73 44 33 35 38 43 45 56 87 102 109 114 119 123 120 107 93 81 77 69
99 157 208 222 245 265 278 276 231 195 196 200 232 239 254 247 241 236 221 208 207 202 184 167 127 62 36 30 31 35 39 52 84 97 99 108 111 108 103 96 87 79 78 78
113 160 214 284 274 287 289 279 247 214 198 208 228 252 242 237 214 205 203 204 206 205 197 175 146 109 47 24 17 29 32 42 82 101 103 103 99 94 90 88 83 79 75 76
161 142 133 267 283 315 278 244 210 196 195 185 213 235 202 200 208 206 206 207 205 202 191 179 175 181 213 265 305 308 24 55 81 99 104 106 103 93 87 88 82 79 81 85
160 142 149 237 326 254 250 244 189 180 193 185 194 201 192 202 207 206 197 195 201 198 188 184 183 194 222 236 227 207 110 92 108 109 108 107 107 103 96 92 89 83 82 89
165 151 156 173 228 269 278 249 179 163 225 202 182 196 204 187 135 254 217 194 193 193 188 191 194 195 204 208 197 160 150 142 135 132 131 125 118 117 115 111 107 99 90 84
138 129 147 176 204 242 253 243 163 113 263 245 174 188 188 145 166 245 221 189 183 176 174 182 188 181 184 197 169 142 170 163 165 160 144 131 126 128 135 138 130 113 107 105
132 166 186 205 225 255 253 195 122 157 233 223 186 191 181 186 205 215 177 170 171 172 176 172 167 169 188 181 153 152 169 178 173 144 129 122 125 132 139 136 128 124 112 102
197 200 214 203 221 252 238 163 174 208 207 202 202 198 188 197 192 173 166 168 170 173 178 170 164 179 186 167 152 154 175 170 141 129 123 121 122 128 123 123 114 115 118 109
207 196 200 201 220 237 224 205 206 178 186 203 199 198 175 170 177 177 176 175 179 180 183 173 167 175 179 166 154 163 179 154 134 128 130 129 118 110 119 127 124 111 114 119
266 232 205 247 261 258 250 236 205 190 195 202 197 187 171 178 183 181 179 179 180 180 179 167 156 165 178 175 166 171 172 154 140 143 148 145 134 126 116 114 125 130 140 141
237 269 263 261 266 276 268 246 224 213 210 207 201 188 182 178 179 181 181 182 181 180 178 166 164 174 185 179 174 175 167 152 149 156 160 157 153 149 137 123 132 155 176 178
220 224 228 242 241 230 246 253 238 219 217 212 203 199 186 180 180 180 183 184 180 178 172 167 169 174 179 175 180 182 172 159 156 162 168 167 162 158 152 143 108 45 159 174